Погода в Тангеранге-Селатане

Индонезия     6°16′37″S   106°40′10″E
темп.,
°C
ветер,
м/с
пор.,
м/с
влажн.,
%
обл.,
%
осадки,
мм/ч
давл.,
гПа
погр.,
м
1 марта, пн
пн101:00+29юз345497 0.0 1010482
04:00+29зюз3557100 0.0 1009427
07:00+29зюз245788 0.0 1010392
10:00+33зюз464227 0.0 10111084
13:00+35зсз554023 0.0 10091772
16:00+33ссз555160 0.4 10081231
19:00+29ссв446681 5.6 1010640
22:00+29с2266100 0.1 1011727
2 марта, вт
вт201:00+29с2370100 0.2 1010678
04:00+28ссз3468100 6.9 1009571
07:00+28сз2269100 8.6 1011554
10:00+32зсз445357 2.7 10121243
13:00+34сз554645 2.9 10091566
16:00+34сз444662 0.1 10071429
19:00+30зсз356476 4.1 1010485
22:00+30юз2357100 2.1 1012664
3 марта, ср
ср301:00+29юз2258100 2.1 1010606
04:00+29с1160100 0.0 1009506
07:00+29всв116495 0.0 1010680
10:00+32ссв325473 0.0 10111224
13:00+33с435378 0.9 10091217
16:00+31с556089 3.4 1007941
19:00+30ссз326495 6.1 1010743
22:00+29с236499 2.6 1012376
4 марта, чт
чт401:00+29ссв225997 4.1 1011535
04:00+28вюв1163100 0.2 1010443
07:00+28всв126479 0.2 1012611
10:00+31св325280 0.0 10121249
13:00+33с334975 0.0 10101380
16:00+33ссз445048 0.3 10081279
19:00+31зсз235471 1.2 10101059
22:00+30сз1257100 0.4 1012489
5 марта, пт
пт501:00+29св1161100 0.4 1011564
04:00+28ссв1166100 0.0 1010497
07:00+29зсз226595 0.0 1011567
10:00+32ссз214826 0.0 10121218
13:00+33с544914 0.0 10091341
16:00+32с555658 0.2 1007934
19:00+30ссв336479 0.8 1009694
22:00+29св3361100 1.8 1011641